Time,TemperatureF,DewpointF,PressureIn,WindDirection,WindDirectionDegrees,WindSpeedMPH,WindSpeedGustMPH,Humidity,HourlyPrecipIn,Conditions,Clouds,dailyrainin,SoftwareType,DateUTC
2013-07-12 00:00:00,80.3,70.4,29.88,SE,146,0.0,0.0,72,0.00,,,0.00,Wunderground v.1.15,2013-07-12 05:00:00,
2013-07-12 00:10:00,80.1,70.7,29.89,SE,146,0.0,0.0,73,0.00,,,0.00,Wunderground v.1.15,2013-07-12 05:10:00,
2013-07-12 00:20:00,79.9,70.5,29.89,SE,146,0.0,0.0,73,0.00,,,0.00,Wunderground v.1.15,2013-07-12 05:20:00,
2013-07-12 00:25:00,79.8,70.4,29.89,SE,146,0.0,0.0,73,0.00,,,0.00,Wunderground v.1.15,2013-07-12 05:25:00,
2013-07-12 00:30:00,79.7,70.7,29.89,SE,146,0.0,0.0,74,0.00,,,0.00,Wunderground v.1.15,2013-07-12 05:30:00,
2013-07-12 00:35:00,79.6,70.6,29.89,SE,146,0.0,0.0,74,0.00,,,0.00,Wunderground v.1.15,2013-07-12 05:35:00,
2013-07-12 00:40:00,79.6,70.6,29.89,SE,146,0.0,0.0,74,0.00,,,0.00,Wunderground v.1.15,2013-07-12 05:40:00,
2013-07-12 00:50:00,79.5,70.5,29.88,SE,146,0.0,0.0,74,0.00,,,0.00,Wunderground v.1.15,2013-07-12 05:50:00,
2013-07-12 00:55:00,79.4,70.8,29.88,SE,146,0.0,0.0,75,0.00,,,0.00,Wunderground v.1.15,2013-07-12 05:55:00,
2013-07-12 01:01:00,79.3,70.7,29.88,SE,146,0.0,0.0,75,0.00,,,0.00,Wunderground v.1.15,2013-07-12 06:01:00,
2013-07-12 01:10:00,79.1,70.5,29.89,SE,146,0.0,0.0,75,0.00,,,0.00,Wunderground v.1.15,2013-07-12 06:10:00,
2013-07-12 01:15:00,79.0,70.8,29.88,SE,146,0.0,0.0,76,0.00,,,0.00,Wunderground v.1.15,2013-07-12 06:15:00,
2013-07-12 01:20:00,78.9,70.7,29.87,SE,146,0.0,0.0,76,0.00,,,0.00,Wunderground v.1.15,2013-07-12 06:20:00,
2013-07-12 01:25:00,78.8,70.6,29.87,SE,146,0.0,0.0,76,0.00,,,0.00,Wunderground v.1.15,2013-07-12 06:25:00,
2013-07-12 01:35:00,78.5,70.7,29.87,SE,146,0.0,0.0,77,0.00,,,0.00,Wunderground v.1.15,2013-07-12 06:35:00,
2013-07-12 01:40:00,78.4,70.6,29.87,SE,146,0.0,0.0,77,0.00,,,0.00,Wunderground v.1.15,2013-07-12 06:40:00,
2013-07-12 01:45:00,78.3,70.9,29.87,SE,146,0.0,0.0,78,0.00,,,0.00,Wunderground v.1.15,2013-07-12 06:45:00,
2013-07-12 01:50:00,78.2,70.8,29.87,SE,146,0.0,0.0,78,0.00,,,0.00,Wunderground v.1.15,2013-07-12 06:50:00,
2013-07-12 01:55:00,78.0,70.6,29.87,SE,146,0.0,0.0,78,0.00,,,0.00,Wunderground v.1.15,2013-07-12 06:55:00,
2013-07-12 02:00:00,77.9,70.5,29.86,SE,146,0.0,0.0,78,0.00,,,0.00,Wunderground v.1.15,2013-07-12 07:00:00,
2013-07-12 02:10:00,77.7,70.7,29.87,SE,146,0.0,0.0,79,0.00,,,0.00,Wunderground v.1.15,2013-07-12 07:10:00,
2013-07-12 02:20:00,77.5,70.8,29.87,SE,145,0.0,0.0,80,0.00,,,0.00,Wunderground v.1.15,2013-07-12 07:20:00,
2013-07-12 02:25:00,77.4,70.7,29.87,SE,145,0.0,0.0,80,0.00,,,0.00,Wunderground v.1.15,2013-07-12 07:25:00,
2013-07-12 02:30:00,77.4,70.7,29.87,SE,146,0.0,0.0,80,0.00,,,0.00,Wunderground v.1.15,2013-07-12 07:30:00,
2013-07-12 02:35:00,77.3,70.6,29.87,SE,146,0.0,0.0,80,0.00,,,0.00,Wunderground v.1.15,2013-07-12 07:35:00,
2013-07-12 02:45:00,77.2,70.9,29.87,SE,146,0.0,0.0,81,0.00,,,0.00,Wunderground v.1.15,2013-07-12 07:45:00,
2013-07-12 02:50:00,77.1,70.8,29.87,SE,145,0.0,0.0,81,0.00,,,0.00,Wunderground v.1.15,2013-07-12 07:50:00,
2013-07-12 02:55:00,77.0,70.7,29.86,SE,145,0.0,0.0,81,0.00,,,0.00,Wunderground v.1.15,2013-07-12 07:55:00,
2013-07-12 03:01:00,76.9,70.6,29.86,SE,145,0.0,0.0,81,0.00,,,0.00,Wunderground v.1.15,2013-07-12 08:01:00,
2013-07-12 03:10:00,76.7,70.8,29.87,SE,146,0.0,0.0,82,0.00,,,0.00,Wunderground v.1.15,2013-07-12 08:10:00,
2013-07-12 03:15:00,76.6,70.7,29.87,SE,145,0.0,0.0,82,0.00,,,0.00,Wunderground v.1.15,2013-07-12 08:15:00,
2013-07-12 03:20:00,76.5,70.6,29.87,SE,146,0.0,0.0,82,0.00,,,0.00,Wunderground v.1.15,2013-07-12 08:20:00,
2013-07-12 03:30:00,76.4,70.5,29.87,SE,145,0.0,0.0,82,0.00,,,0.00,Wunderground v.1.15,2013-07-12 08:30:00,
2013-07-12 03:35:00,76.3,70.4,29.87,SE,146,0.0,0.0,82,0.00,,,0.00,Wunderground v.1.15,2013-07-12 08:35:00,
2013-07-12 03:40:00,76.2,70.3,29.87,SE,145,0.0,0.0,82,0.00,,,0.00,Wunderground v.1.15,2013-07-12 08:40:00,
2013-07-12 03:45:00,76.2,70.3,29.86,SE,146,0.0,0.0,82,0.00,,,0.00,Wunderground v.1.15,2013-07-12 08:45:00,
2013-07-12 03:50:00,76.1,70.2,29.86,SE,145,0.0,0.0,82,0.00,,,0.00,Wunderground v.1.15,2013-07-12 08:50:00,
2013-07-12 04:00:00,76.0,70.1,29.86,SE,145,0.0,0.0,82,0.00,,,0.00,Wunderground v.1.15,2013-07-12 09:00:00,
2013-07-12 04:10:00,75.9,70.0,29.86,SE,145,0.0,0.0,82,0.00,,,0.00,Wunderground v.1.15,2013-07-12 09:10:00,
2013-07-12 04:20:00,75.7,70.2,29.86,SE,145,0.0,0.0,83,0.00,,,0.00,Wunderground v.1.15,2013-07-12 09:20:00,
2013-07-12 04:25:00,75.7,70.2,29.86,SE,145,0.0,0.0,83,0.00,,,0.00,Wunderground v.1.15,2013-07-12 09:25:00,
2013-07-12 04:30:00,75.6,70.1,29.87,SE,145,0.0,0.0,83,0.00,,,0.00,Wunderground v.1.15,2013-07-12 09:30:00,
2013-07-12 04:35:00,75.6,70.1,29.87,SE,145,0.0,0.0,83,0.00,,,0.00,Wunderground v.1.15,2013-07-12 09:35:00,
2013-07-12 04:45:00,75.7,70.2,29.87,SE,145,0.0,0.0,83,0.00,,,0.00,Wunderground v.1.15,2013-07-12 09:45:00,
2013-07-12 04:50:00,75.7,70.5,29.87,SE,145,0.0,0.0,84,0.00,,,0.00,Wunderground v.1.15,2013-07-12 09:50:00,
2013-07-12 04:55:00,75.7,70.5,29.87,SE,145,0.0,0.0,84,0.00,,,0.00,Wunderground v.1.15,2013-07-12 09:55:00,
2013-07-12 05:01:00,75.7,70.5,29.86,SE,145,0.0,0.0,84,0.00,,,0.00,Wunderground v.1.15,2013-07-12 10:01:00,
2013-07-12 05:10:00,75.5,70.3,29.87,SE,145,0.0,0.0,84,0.00,,,0.00,Wunderground v.1.15,2013-07-12 10:10:00,
2013-07-12 05:15:00,75.5,70.3,29.86,SE,145,0.0,0.0,84,0.00,,,0.00,Wunderground v.1.15,2013-07-12 10:15:00,
2013-07-12 05:25:00,75.2,70.0,29.87,SE,145,0.0,0.0,84,0.00,,,0.00,Wunderground v.1.15,2013-07-12 10:25:00,
2013-07-12 05:30:00,75.1,70.3,29.86,SE,145,0.0,0.0,85,0.00,,,0.00,Wunderground v.1.15,2013-07-12 10:30:00,
2013-07-12 05:35:00,75.0,70.2,29.86,SE,145,0.0,0.0,85,0.00,,,0.00,Wunderground v.1.15,2013-07-12 10:35:00,
2013-07-12 05:40:00,74.8,70.0,29.87,SE,145,0.0,0.0,85,0.00,,,0.00,Wunderground v.1.15,2013-07-12 10:40:00,
2013-07-12 05:45:00,74.7,69.9,29.87,SE,145,0.0,0.0,85,0.00,,,0.00,Wunderground v.1.15,2013-07-12 10:45:00,
2013-07-12 05:55:00,74.6,70.1,29.88,SE,145,0.0,0.0,86,0.00,,,0.00,Wunderground v.1.15,2013-07-12 10:55:00,
2013-07-12 06:00:00,74.4,69.9,29.88,SE,145,0.0,0.0,86,0.00,,,0.00,Wunderground v.1.15,2013-07-12 11:00:00,
2013-07-12 06:10:00,74.2,69.7,29.87,SE,145,0.0,0.0,86,0.00,,,0.00,Wunderground v.1.15,2013-07-12 11:10:00,
2013-07-12 06:15:00,74.1,69.6,29.88,SE,145,0.0,0.0,86,0.00,,,0.00,Wunderground v.1.15,2013-07-12 11:15:00,
2013-07-12 06:20:00,74.1,69.6,29.88,SE,145,0.0,0.0,86,0.00,,,0.00,Wunderground v.1.15,2013-07-12 11:20:00,
2013-07-12 06:25:00,74.1,70.0,29.88,SE,145,0.0,0.0,87,0.00,,,0.00,Wunderground v.1.15,2013-07-12 11:25:00,
2013-07-12 06:30:00,74.1,70.0,29.88,SE,145,0.0,0.0,87,0.00,,,0.00,Wunderground v.1.15,2013-07-12 11:30:00,
2013-07-12 06:35:00,74.1,70.0,29.88,SE,145,0.0,0.0,87,0.00,,,0.00,Wunderground v.1.15,2013-07-12 11:35:00,
2013-07-12 06:45:00,74.1,70.0,29.88,SE,145,0.0,0.0,87,0.00,,,0.00,Wunderground v.1.15,2013-07-12 11:45:00,
2013-07-12 06:50:00,74.1,70.0,29.88,SE,145,0.0,0.0,87,0.00,,,0.00,Wunderground v.1.15,2013-07-12 11:50:00,
2013-07-12 06:55:00,74.2,70.4,29.89,SE,145,0.0,0.0,88,0.00,,,0.00,Wunderground v.1.15,2013-07-12 11:55:00,
2013-07-12 07:01:00,74.2,70.4,29.89,SE,145,0.0,0.0,88,0.00,,,0.00,Wunderground v.1.15,2013-07-12 12:01:00,
2013-07-12 07:10:00,74.3,70.5,29.89,SE,145,0.0,0.0,88,0.00,,,0.00,Wunderground v.1.15,2013-07-12 12:10:00,
2013-07-12 07:15:00,74.3,70.5,29.90,SE,145,0.0,0.0,88,0.00,,,0.00,Wunderground v.1.15,2013-07-12 12:15:00,
2013-07-12 07:20:00,74.4,70.6,29.90,SE,145,0.0,0.0,88,0.00,,,0.00,Wunderground v.1.15,2013-07-12 12:20:00,
2013-07-12 07:30:00,74.6,70.5,29.90,SE,145,0.0,0.0,87,0.00,,,0.00,Wunderground v.1.15,2013-07-12 12:30:00,
2013-07-12 07:35:00,74.8,70.7,29.90,SE,145,0.0,0.0,87,0.00,,,0.00,Wunderground v.1.15,2013-07-12 12:35:00,
2013-07-12 07:40:00,75.1,71.0,29.90,SE,145,0.0,0.0,87,0.00,,,0.00,Wunderground v.1.15,2013-07-12 12:40:00,
2013-07-12 07:45:00,75.4,70.9,29.90,SE,146,0.0,0.0,86,0.00,,,0.00,Wunderground v.1.15,2013-07-12 12:45:00,
2013-07-12 07:55:00,76.0,71.2,29.91,SE,142,0.0,0.0,85,0.00,,,0.00,Wunderground v.1.15,2013-07-12 12:55:00,
2013-07-12 08:01:00,76.4,71.6,29.91,SE,140,0.0,0.0,85,0.00,,,0.00,Wunderground v.1.15,2013-07-12 13:01:00,
2013-07-12 08:10:00,77.2,71.6,29.91,SE,138,0.0,0.0,83,0.00,,,0.00,Wunderground v.1.15,2013-07-12 13:10:00,
2013-07-12 08:15:00,77.8,71.9,29.91,SE,138,0.0,0.0,82,0.00,,,0.00,Wunderground v.1.15,2013-07-12 13:15:00,
2013-07-12 08:20:00,78.7,72.0,29.91,SE,138,0.0,0.0,80,0.00,,,0.00,Wunderground v.1.15,2013-07-12 13:20:00,
2013-07-12 08:25:00,79.7,72.6,29.91,SE,139,0.0,5.0,79,0.00,,,0.00,Wunderground v.1.15,2013-07-12 13:25:00,
2013-07-12 08:30:00,80.5,72.6,29.91,SE,138,1.0,5.0,77,0.00,,,0.00,Wunderground v.1.15,2013-07-12 13:30:00,
2013-07-12 08:40:00,81.9,72.8,29.92,ESE,123,2.0,2.0,74,0.00,,,0.00,Wunderground v.1.15,2013-07-12 13:40:00,
2013-07-12 08:45:00,82.6,73.1,29.91,ESE,122,0.0,2.0,73,0.00,,,0.00,Wunderground v.1.15,2013-07-12 13:45:00,
2013-07-12 08:50:00,83.3,72.9,29.92,ESE,122,0.0,0.0,71,0.00,,,0.00,Wunderground v.1.15,2013-07-12 13:50:00,
2013-07-12 08:55:00,84.0,73.6,29.92,ESE,122,1.0,1.0,71,0.00,,,0.00,Wunderground v.1.15,2013-07-12 13:55:00,
2013-07-12 09:01:00,84.5,72.8,29.92,SE,131,1.0,4.0,68,0.00,,,0.00,Wunderground v.1.15,2013-07-12 14:01:00,
2013-07-12 09:10:00,85.3,73.1,29.92,SE,134,2.0,2.0,67,0.00,,,0.00,Wunderground v.1.15,2013-07-12 14:10:00,
2013-07-12 09:15:00,85.8,73.1,29.92,SE,134,1.0,2.0,66,0.00,,,0.00,Wunderground v.1.15,2013-07-12 14:15:00,
2013-07-12 09:25:00,86.7,73.5,29.92,ESE,123,2.0,6.0,65,0.00,,,0.00,Wunderground v.1.15,2013-07-12 14:25:00,
2013-07-12 09:30:00,87.0,73.3,29.92,ESE,122,1.0,1.0,64,0.00,,,0.00,Wunderground v.1.15,2013-07-12 14:30:00,
2013-07-12 09:35:00,87.4,74.2,29.92,ESE,122,0.0,1.0,65,0.00,,,0.00,Wunderground v.1.15,2013-07-12 14:35:00,
2013-07-12 09:40:00,88.0,73.8,29.92,ESE,122,0.0,5.0,63,0.00,,,0.00,Wunderground v.1.15,2013-07-12 14:40:00,
2013-07-12 09:45:00,88.4,73.2,29.92,ESE,122,1.0,5.0,61,0.00,,,0.00,Wunderground v.1.15,2013-07-12 14:45:00,
2013-07-12 09:55:00,88.9,73.7,29.92,SE,126,1.0,1.0,61,0.00,,,0.00,Wunderground v.1.15,2013-07-12 14:55:00,
2013-07-12 10:01:00,89.2,73.0,29.92,SE,126,1.0,1.0,59,0.00,,,0.00,Wunderground v.1.15,2013-07-12 15:01:00,
2013-07-12 10:10:00,89.7,72.4,29.92,SE,136,1.0,1.0,57,0.00,,,0.00,Wunderground v.1.15,2013-07-12 15:10:00,
2013-07-12 10:15:00,89.7,71.9,29.92,SE,136,1.0,1.0,56,0.00,,,0.00,Wunderground v.1.15,2013-07-12 15:15:00,
2013-07-12 10:20:00,89.8,73.0,29.92,SE,136,0.0,0.0,58,0.00,,,0.00,Wunderground v.1.15,2013-07-12 15:20:00,
2013-07-12 10:25:00,89.7,72.4,29.92,SE,136,0.0,0.0,57,0.00,,,0.00,Wunderground v.1.15,2013-07-12 15:25:00,
2013-07-12 10:35:00,89.7,73.0,29.92,SE,136,1.0,4.0,58,0.00,,,0.00,Wunderground v.1.15,2013-07-12 15:35:00,
2013-07-12 10:40:00,90.0,73.7,29.92,SE,136,1.0,1.0,59,0.00,,,0.00,Wunderground v.1.15,2013-07-12 15:40:00,
2013-07-12 10:45:00,91.0,74.2,29.92,SE,136,1.0,1.0,58,0.00,,,0.00,Wunderground v.1.15,2013-07-12 15:45:00,
2013-07-12 10:50:00,91.3,74.4,29.92,SE,136,0.0,0.0,58,0.00,,,0.00,Wunderground v.1.15,2013-07-12 15:50:00,
2013-07-12 10:55:00,91.4,73.5,29.92,ESE,105,2.0,2.0,56,0.00,,,0.00,Wunderground v.1.15,2013-07-12 15:55:00,
2013-07-12 11:01:00,91.4,73.5,29.92,ESE,110,2.0,2.0,56,0.00,,,0.00,Wunderground v.1.15,2013-07-12 16:01:00,
2013-07-12 11:10:00,91.2,73.8,29.91,SE,126,1.0,1.0,57,0.00,,,0.00,Wunderground v.1.15,2013-07-12 16:10:00,
2013-07-12 11:15:00,91.7,74.8,29.91,ESE,121,1.0,5.0,58,0.00,,,0.00,Wunderground v.1.15,2013-07-12 16:15:00,
2013-07-12 11:20:00,92.1,73.1,29.91,ESE,115,1.0,1.0,54,0.00,,,0.00,Wunderground v.1.15,2013-07-12 16:20:00,
2013-07-12 11:25:00,92.4,73.9,29.91,ESE,113,1.0,1.0,55,0.00,,,0.00,Wunderground v.1.15,2013-07-12 16:25:00,
2013-07-12 11:35:00,92.1,72.5,29.91,ESE,113,0.0,0.0,53,0.00,,,0.00,Wunderground v.1.15,2013-07-12 16:35:00,
2013-07-12 11:40:00,92.7,71.9,29.91,ESE,104,0.0,0.0,51,0.00,,,0.00,Wunderground v.1.15,2013-07-12 16:40:00,
2013-07-12 11:45:00,93.1,72.3,29.91,East,85,1.0,1.0,51,0.00,,,0.00,Wunderground v.1.15,2013-07-12 16:45:00,
2013-07-12 11:55:00,94.0,72.5,29.91,East,84,1.0,3.0,50,0.00,,,0.00,Wunderground v.1.15,2013-07-12 16:55:00,
2013-07-12 12:01:00,94.1,73.8,29.90,ENE,75,1.0,7.0,52,0.00,,,0.00,Wunderground v.1.15,2013-07-12 17:01:00,
2013-07-12 12:10:00,94.5,72.4,29.90,ENE,72,2.0,2.0,49,0.00,,,0.00,Wunderground v.1.15,2013-07-12 17:10:00,
2013-07-12 12:15:00,94.6,73.7,29.90,ENE,71,1.0,2.0,51,0.00,,,0.00,Wunderground v.1.15,2013-07-12 17:15:00,
2013-07-12 12:20:00,95.2,71.2,29.90,East,89,1.0,1.0,46,0.00,,,0.00,Wunderground v.1.15,2013-07-12 17:20:00,
2013-07-12 12:25:00,95.6,71.5,29.90,East,100,2.0,2.0,46,0.00,,,0.00,Wunderground v.1.15,2013-07-12 17:25:00,
2013-07-12 12:30:00,95.8,71.1,29.90,East,83,2.0,2.0,45,0.00,,,0.00,Wunderground v.1.15,2013-07-12 17:30:00,
2013-07-12 12:40:00,96.2,72.1,29.90,East,86,1.0,2.0,46,0.00,,,0.00,Wunderground v.1.15,2013-07-12 17:40:00,
2013-07-12 12:45:00,96.2,71.4,29.90,ESE,105,2.0,2.0,45,0.00,,,0.00,Wunderground v.1.15,2013-07-12 17:45:00,
2013-07-12 12:50:00,96.5,71.7,29.90,SE,128,3.0,9.0,45,0.00,,,0.00,Wunderground v.1.15,2013-07-12 17:50:00,
2013-07-12 13:05:00,96.8,73.9,29.90,ESE,115,3.0,7.0,48,0.00,,,0.00,Wunderground v.1.15,2013-07-12 18:05:00,
2013-07-12 13:10:00,97.1,70.2,29.90,SSE,153,4.0,4.0,42,0.00,,,0.00,Wunderground v.1.15,2013-07-12 18:10:00,
2013-07-12 13:20:00,97.5,73.2,29.89,ESE,115,6.0,8.0,46,0.00,,,0.00,Wunderground v.1.15,2013-07-12 18:20:00,
2013-07-12 13:26:00,97.4,70.5,29.90,ESE,109,6.0,8.0,42,0.00,,,0.00,Wunderground v.1.15,2013-07-12 18:26:00,
2013-07-12 13:35:00,97.5,71.2,29.89,East,83,2.0,3.0,43,0.00,,,0.00,Wunderground v.1.15,2013-07-12 18:35:00,
2013-07-12 13:40:00,98.0,72.4,29.89,ESE,118,4.0,6.0,44,0.00,,,0.00,Wunderground v.1.15,2013-07-12 18:40:00,
2013-07-12 13:50:00,98.3,70.6,29.89,ESE,103,4.0,6.0,41,0.00,,,0.00,Wunderground v.1.15,2013-07-12 18:50:00,
2013-07-12 13:55:00,98.4,71.4,29.88,SE,134,6.0,6.0,42,0.00,,,0.00,Wunderground v.1.15,2013-07-12 18:55:00,
2013-07-12 14:01:00,98.4,69.9,29.88,ESE,106,4.0,4.0,40,0.00,,,0.00,Wunderground v.1.15,2013-07-12 19:01:00,
2013-07-12 14:10:00,98.6,70.8,29.88,ENE,78,3.0,8.0,41,0.00,,,0.00,Wunderground v.1.15,2013-07-12 19:10:00,
2013-07-12 14:15:00,98.9,70.4,29.88,ENE,62,4.0,8.0,40,0.00,,,0.00,Wunderground v.1.15,2013-07-12 19:15:00,
2013-07-12 14:20:00,99.2,71.4,29.88,ESE,119,5.0,5.0,41,0.00,,,0.00,Wunderground v.1.15,2013-07-12 19:20:00,
2013-07-12 14:30:00,99.7,71.1,29.87,ENE,76,4.0,4.0,40,0.00,,,0.00,Wunderground v.1.15,2013-07-12 19:30:00,
2013-07-12 14:35:00,99.4,71.5,29.87,SE,135,5.0,5.0,41,0.00,,,0.00,Wunderground v.1.15,2013-07-12 19:35:00,
2013-07-12 14:40:00,99.5,72.3,29.87,SSE,150,6.0,6.0,42,0.00,,,0.00,Wunderground v.1.15,2013-07-12 19:40:00,
2013-07-12 14:45:00,99.5,74.4,29.87,SE,133,5.0,7.0,45,0.00,,,0.00,Wunderground v.1.15,2013-07-12 19:45:00,
2013-07-12 14:50:00,99.4,70.8,29.87,SE,131,5.0,7.0,40,0.00,,,0.00,Wunderground v.1.15,2013-07-12 19:50:00,
2013-07-12 14:55:00,99.4,72.3,29.86,SE,124,5.0,7.0,42,0.00,,,0.00,Wunderground v.1.15,2013-07-12 19:55:00,
2013-07-12 15:01:00,99.5,70.9,29.86,East,99,4.0,4.0,40,0.00,,,0.00,Wunderground v.1.15,2013-07-12 20:01:00,
2013-07-12 15:06:00,99.7,73.9,29.86,SE,143,3.0,7.0,44,0.00,,,0.00,Wunderground v.1.15,2013-07-12 20:06:00,
2013-07-12 15:15:00,100.0,71.3,29.87,SSE,152,7.0,11.0,40,0.00,,,0.00,Wunderground v.1.15,2013-07-12 20:15:00,
2013-07-12 15:20:00,99.9,71.3,29.86,ESE,119,6.0,6.0,40,0.00,,,0.00,Wunderground v.1.15,2013-07-12 20:20:00,
2013-07-12 15:25:00,100.4,71.7,29.86,ESE,121,4.0,8.0,40,0.00,,,0.00,Wunderground v.1.15,2013-07-12 20:25:00,
2013-07-12 15:35:00,100.6,72.6,29.86,East,93,3.0,4.0,41,0.00,,,0.00,Wunderground v.1.15,2013-07-12 20:35:00,
2013-07-12 15:40:00,100.7,71.2,29.85,South,169,3.0,7.0,39,0.00,,,0.00,Wunderground v.1.15,2013-07-12 20:40:00,
2013-07-12 15:46:00,100.7,72.0,29.85,SE,124,4.0,7.0,40,0.00,,,0.00,Wunderground v.1.15,2013-07-12 20:46:00,
2013-07-12 15:55:00,101.5,71.2,29.85,ESE,121,4.0,8.0,38,0.00,,,0.00,Wunderground v.1.15,2013-07-12 20:55:00,
2013-07-12 16:01:00,101.5,69.6,29.85,ESE,121,5.0,9.0,36,0.00,,,0.00,Wunderground v.1.15,2013-07-12 21:01:00,
2013-07-12 16:10:00,101.3,70.2,29.85,ESE,114,7.0,9.0,37,0.00,,,0.00,Wunderground v.1.15,2013-07-12 21:10:00,
2013-07-12 16:15:00,101.4,68.7,29.84,ESE,111,5.0,9.0,35,0.00,,,0.00,Wunderground v.1.15,2013-07-12 21:15:00,
2013-07-12 16:20:00,101.6,72.0,29.84,ESE,113,5.0,12.0,39,0.00,,,0.00,Wunderground v.1.15,2013-07-12 21:20:00,
2013-07-12 16:25:00,101.6,70.5,29.84,East,90,7.0,12.0,37,0.00,,,0.00,Wunderground v.1.15,2013-07-12 21:25:00,
2013-07-12 16:30:00,101.4,70.3,29.84,ESE,109,8.0,8.0,37,0.00,,,0.00,Wunderground v.1.15,2013-07-12 21:30:00,
2013-07-12 16:40:00,101.4,70.3,29.84,ESE,104,5.0,6.0,37,0.00,,,0.00,Wunderground v.1.15,2013-07-12 21:40:00,
2013-07-12 16:45:00,101.6,71.3,29.83,ESE,102,6.0,6.0,38,0.00,,,0.00,Wunderground v.1.15,2013-07-12 21:45:00,
2013-07-12 16:50:00,101.9,70.7,29.83,East,88,5.0,5.0,37,0.00,,,0.00,Wunderground v.1.15,2013-07-12 21:50:00,
2013-07-12 16:56:00,102.0,70.0,29.83,South,170,6.0,6.0,36,0.00,,,0.00,Wunderground v.1.15,2013-07-12 21:56:00,
2013-07-12 17:01:00,102.1,70.9,29.83,ENE,76,5.0,6.0,37,0.00,,,0.00,Wunderground v.1.15,2013-07-12 22:01:00,
2013-07-12 17:10:00,102.4,70.4,29.83,ENE,57,6.0,6.0,36,0.00,,,0.00,Wunderground v.1.15,2013-07-12 22:10:00,
2013-07-12 17:20:00,101.6,70.5,29.83,SE,142,6.0,6.0,37,0.00,,,0.00,Wunderground v.1.15,2013-07-12 22:20:00,
2013-07-12 17:25:00,101.4,70.3,29.83,ESE,107,6.0,6.0,37,0.00,,,0.00,Wunderground v.1.15,2013-07-12 22:25:00,
2013-07-12 17:30:00,101.4,70.3,29.83,ESE,109,4.0,4.0,37,0.00,,,0.00,Wunderground v.1.15,2013-07-12 22:30:00,
2013-07-12 17:35:00,101.6,70.5,29.83,ESE,112,5.0,5.0,37,0.00,,,0.00,Wunderground v.1.15,2013-07-12 22:35:00,
2013-07-12 17:40:00,101.5,70.4,29.83,East,90,5.0,9.0,37,0.00,,,0.00,Wunderground v.1.15,2013-07-12 22:40:00,
2013-07-12 17:50:00,101.8,70.6,29.83,East,97,4.0,5.0,37,0.00,,,0.00,Wunderground v.1.15,2013-07-12 22:50:00,
2013-07-12 17:55:00,101.9,69.1,29.82,ESE,103,4.0,5.0,35,0.00,,,0.00,Wunderground v.1.15,2013-07-12 22:55:00,
2013-07-12 18:01:00,101.9,69.1,29.82,ESE,113,6.0,7.0,35,0.00,,,0.00,Wunderground v.1.15,2013-07-12 23:01:00,
2013-07-12 18:15:00,101.9,68.3,29.81,ENE,63,6.0,8.0,34,0.00,,,0.00,Wunderground v.1.15,2013-07-12 23:15:00,
2013-07-12 18:20:00,101.5,68.7,29.81,East,84,7.0,7.0,35,0.00,,,0.00,Wunderground v.1.15,2013-07-12 23:20:00,
2013-07-12 18:26:00,101.3,68.6,29.81,ESE,119,7.0,12.0,35,0.00,,,0.00,Wunderground v.1.15,2013-07-12 23:26:00,
2013-07-12 18:35:00,101.0,68.3,29.81,ESE,115,6.0,7.0,35,0.00,,,0.00,Wunderground v.1.15,2013-07-12 23:35:00,
2013-07-12 18:45:00,100.8,68.1,29.82,ESE,119,5.0,7.0,35,0.00,,,0.00,Wunderground v.1.15,2013-07-12 23:45:00,
2013-07-12 18:55:00,100.3,67.7,29.81,ESE,121,7.0,7.0,35,0.00,,,0.00,Wunderground v.1.15,2013-07-12 23:55:00,
2013-07-12 19:01:00,100.1,66.7,29.81,East,97,6.0,8.0,34,0.00,,,0.00,Wunderground v.1.15,2013-07-13 00:01:00,
2013-07-12 19:10:00,100.0,67.4,29.81,SE,134,5.0,5.0,35,0.00,,,0.00,Wunderground v.1.15,2013-07-13 00:10:00,
2013-07-12 19:15:00,99.9,67.3,29.81,ESE,110,5.0,7.0,35,0.00,,,0.00,Wunderground v.1.15,2013-07-13 00:15:00,
2013-07-12 19:20:00,99.5,67.8,29.82,ESE,112,6.0,7.0,36,0.00,,,0.00,Wunderground v.1.15,2013-07-13 00:20:00,
2013-07-12 19:35:00,98.0,67.3,29.82,SE,134,3.0,9.0,37,0.00,,,0.00,Wunderground v.1.15,2013-07-13 00:35:00,
2013-07-12 19:40:00,97.5,67.6,29.82,SE,134,6.0,6.0,38,0.00,,,0.00,Wunderground v.1.15,2013-07-13 00:40:00,
2013-07-12 19:45:00,97.0,67.9,29.82,East,100,6.0,9.0,39,0.00,,,0.00,Wunderground v.1.15,2013-07-13 00:45:00,
2013-07-12 19:50:00,96.6,68.3,29.82,ESE,119,5.0,11.0,40,0.00,,,0.00,Wunderground v.1.15,2013-07-13 00:50:00,
2013-07-12 19:56:00,96.3,68.1,29.82,East,92,5.0,11.0,40,0.00,,,0.00,Wunderground v.1.15,2013-07-13 00:56:00,
2013-07-12 20:01:00,95.9,67.0,29.82,East,91,6.0,9.0,39,0.00,,,0.00,Wunderground v.1.15,2013-07-13 01:01:00,
2013-07-12 20:10:00,95.4,67.2,29.82,East,101,4.0,4.0,40,0.00,,,0.00,Wunderground v.1.15,2013-07-13 01:10:00,
2013-07-12 20:20:00,95.0,67.6,29.83,ESE,103,4.0,4.0,41,0.00,,,0.00,Wunderground v.1.15,2013-07-13 01:20:00,
2013-07-12 20:25:00,94.7,67.3,29.83,East,88,4.0,4.0,41,0.00,,,0.00,Wunderground v.1.15,2013-07-13 01:25:00,
2013-07-12 20:30:00,94.5,67.2,29.83,ESE,107,3.0,3.0,41,0.00,,,0.00,Wunderground v.1.15,2013-07-13 01:30:00,
2013-07-12 20:35:00,94.2,66.9,29.83,ESE,112,3.0,3.0,41,0.00,,,0.00,Wunderground v.1.15,2013-07-13 01:35:00,
2013-07-12 20:40:00,93.9,67.3,29.83,ESE,107,3.0,8.0,42,0.00,,,0.00,Wunderground v.1.15,2013-07-13 01:40:00,
2013-07-12 20:50:00,93.2,67.4,29.83,ESE,107,3.0,3.0,43,0.00,,,0.00,Wunderground v.1.15,2013-07-13 01:50:00,
2013-07-12 20:55:00,92.9,67.1,29.83,ESE,105,3.0,7.0,43,0.00,,,0.00,Wunderground v.1.15,2013-07-13 01:55:00,
2013-07-12 21:01:00,92.5,67.4,29.83,ESE,105,3.0,3.0,44,0.00,,,0.00,Wunderground v.1.15,2013-07-13 02:01:00,
2013-07-12 21:10:00,92.0,67.0,29.83,East,98,3.0,3.0,44,0.00,,,0.00,Wunderground v.1.15,2013-07-13 02:10:00,
2013-07-12 21:15:00,91.8,67.4,29.83,East,101,2.0,3.0,45,0.00,,,0.00,Wunderground v.1.15,2013-07-13 02:15:00,
2013-07-12 21:20:00,91.5,67.2,29.83,ESE,107,2.0,2.0,45,0.00,,,0.00,Wunderground v.1.15,2013-07-13 02:20:00,
2013-07-12 21:25:00,91.3,67.0,29.83,ESE,106,2.0,2.0,45,0.00,,,0.00,Wunderground v.1.15,2013-07-13 02:25:00,
2013-07-12 21:35:00,90.9,67.3,29.83,ESE,108,1.0,2.0,46,0.00,,,0.00,Wunderground v.1.15,2013-07-13 02:35:00,
2013-07-12 21:40:00,90.7,67.7,29.84,ESE,107,0.0,0.0,47,0.00,,,0.00,Wunderground v.1.15,2013-07-13 02:40:00,
2013-07-12 21:45:00,90.4,67.4,29.84,ESE,105,1.0,1.0,47,0.00,,,0.00,Wunderground v.1.15,2013-07-13 02:45:00,
2013-07-12 21:50:00,90.2,67.2,29.84,ESE,105,1.0,1.0,47,0.00,,,0.00,Wunderground v.1.15,2013-07-13 02:50:00,
2013-07-12 21:55:00,90.0,67.7,29.84,ESE,105,0.0,1.0,48,0.00,,,0.00,Wunderground v.1.15,2013-07-13 02:55:00,
2013-07-12 22:05:00,89.5,67.8,29.85,East,101,1.0,1.0,49,0.00,,,0.00,Wunderground v.1.15,2013-07-13 03:05:00,
2013-07-12 22:11:00,89.3,67.6,29.85,East,100,1.0,1.0,49,0.00,,,0.00,Wunderground v.1.15,2013-07-13 03:11:00,
2013-07-12 22:20:00,89.0,67.9,29.85,East,100,1.0,1.0,50,0.00,,,0.00,Wunderground v.1.15,2013-07-13 03:20:00,
2013-07-12 22:30:00,88.7,67.7,29.85,ESE,102,2.0,2.0,50,0.00,,,0.00,Wunderground v.1.15,2013-07-13 03:30:00,
2013-07-12 22:35:00,88.6,68.2,29.85,ESE,103,1.0,2.0,51,0.00,,,0.00,Wunderground v.1.15,2013-07-13 03:35:00,
2013-07-12 22:45:00,88.4,68.0,29.85,East,101,2.0,2.0,51,0.00,,,0.00,Wunderground v.1.15,2013-07-13 03:45:00,
2013-07-12 22:50:00,88.3,68.4,29.86,ESE,109,2.0,2.0,52,0.00,,,0.00,Wunderground v.1.15,2013-07-13 03:50:00,
2013-07-12 23:01:00,88.1,68.8,29.86,ESE,107,3.0,8.0,53,0.00,,,0.00,Wunderground v.1.15,2013-07-13 04:01:00,
2013-07-12 23:05:00,88.0,68.7,29.86,ESE,107,2.0,8.0,53,0.00,,,0.00,Wunderground v.1.15,2013-07-13 04:05:00,
2013-07-12 23:10:00,87.9,68.6,29.86,ESE,107,2.0,6.0,53,0.00,,,0.00,Wunderground v.1.15,2013-07-13 04:10:00,
2013-07-12 23:15:00,87.7,69.0,29.87,ESE,107,1.0,6.0,54,0.00,,,0.00,Wunderground v.1.15,2013-07-13 04:15:00,
2013-07-12 23:20:00,87.6,68.9,29.87,ESE,107,1.0,1.0,54,0.00,,,0.00,Wunderground v.1.15,2013-07-13 04:20:00,
2013-07-12 23:25:00,87.4,69.3,29.86,ESE,107,1.0,4.0,55,0.00,,,0.00,Wunderground v.1.15,2013-07-13 04:25:00,
2013-07-12 23:30:00,87.2,69.1,29.87,ESE,107,1.0,1.0,55,0.00,,,0.00,Wunderground v.1.15,2013-07-13 04:30:00,
2013-07-12 23:35:00,87.0,69.4,29.87,ESE,107,1.0,1.0,56,0.00,,,0.00,Wunderground v.1.15,2013-07-13 04:35:00,
2013-07-12 23:40:00,86.9,69.8,29.87,ESE,107,0.0,0.0,57,0.00,,,0.00,Wunderground v.1.15,2013-07-13 04:40:00,
2013-07-12 23:45:00,86.7,69.6,29.87,ESE,107,0.0,0.0,57,0.00,,,0.00,Wunderground v.1.15,2013-07-13 04:45:00,
2013-07-12 23:50:00,86.5,69.5,29.87,ESE,107,0.0,0.0,57,0.00,,,0.00,Wunderground v.1.15,2013-07-13 04:50:00,
2013-07-12 23:55:00,86.4,69.4,29.87,ESE,109,1.0,5.0,57,0.00,,,0.00,Wunderground v.1.15,2013-07-13 04:55:00,